When you browse on this site, cookies collect data to enhance your experience and personalize the content and advertising you see.
Visit our Privacy Policy to learn more. By continuing to use the site, you agree to this use of cookies and data.
  • In Austria
  • List of Countries
  • For 7 days
  • Water Temperature
  • Weather Map
  • News
  • Weather Widgets
  • user-avatar
    Login

    Hourly Weather Madrid

    Today, 23 September, Monday

    Time Temperature Precipitation Wind Pressure Humidity
    00:00 +11°C° 0.2 mm 1 mps 561 mmHg 83%
    01:00 +11°C° 0 mm 1 mps 561 mmHg 84%
    02:00 +11°C° 0.3 mm 1 mps 561 mmHg 84%
    03:00 +11°C° 0.3 mm 1 mps 561 mmHg 84%
    04:00 +10°C° 0.3 mm 1 mps 561 mmHg 84%
    05:00 +11°C° 0.1 mm 1 mps 562 mmHg 82%
    06:00 +12°C° 0.1 mm 1 mps 562 mmHg 80%
    07:00 +13°C° 0 mm 1 mps 563 mmHg 77%
    08:00 +15°C° 0.1 mm 1 mps 564 mmHg 72%
    09:00 +16°C° 0.1 mm 1 mps 565 mmHg 68%
    10:00 +19°C° 0.1 mm 1 mps 566 mmHg 63%
    11:00 +19°C° 0.4 mm 1 mps 565 mmHg 66%
    12:00 +18°C° 0.4 mm 2 mps 564 mmHg 68%
    13:00 +18°C° 0.4 mm 2 mps 563 mmHg 71%
    14:00 +17°C° 0.5 mm 2 mps 562 mmHg 71%
    15:00 +17°C° 0.5 mm 2 mps 562 mmHg 72%
    16:00 +18°C° 0.5 mm 1 mps 562 mmHg 72%
    17:00 +16°C° 0.5 mm 1 mps 562 mmHg 75%
    18:00 +15°C° 0.5 mm 1 mps 561 mmHg 78%
    19:00 +14°C° 0.5 mm 1 mps 561 mmHg 81%
    20:00 +14°C° 0.2 mm 1 mps 562 mmHg 81%
    21:00 +13°C° 0.2 mm 1 mps 562 mmHg 81%
    22:00 +13°C° 0.2 mm 1 mps 562 mmHg 82%
    23:00 +13°C° 0.1 mm 1 mps 562 mmHg 81%

    Tomorrow, 24 September, Tuesday

    Time Temperature Precipitation Wind Pressure Humidity
    00:00 +13°C° 0.1 mm 1 mps 562 mmHg 81%
    01:00 +11°C° 0.1 mm 0 mps 562 mmHg 81%
    02:00 +11°C° 0.1 mm 0 mps 561 mmHg 82%
    03:00 +12°C° 0.1 mm 1 mps 561 mmHg 83%
    04:00 +11°C° 0.1 mm 1 mps 561 mmHg 84%
    05:00 +12°C° 0 mm 1 mps 561 mmHg 83%
    06:00 +12°C° 0 mm 1 mps 562 mmHg 81%
    07:00 +13°C° 0 mm 1 mps 563 mmHg 79%
    08:00 +14°C° 0.1 mm 1 mps 564 mmHg 75%
    09:00 +16°C° 0.1 mm 1 mps 565 mmHg 70%
    10:00 +18°C° 0.1 mm 1 mps 566 mmHg 66%
    11:00 +19°C° 0.5 mm 1 mps 565 mmHg 67%
    12:00 +19°C° 0.5 mm 1 mps 564 mmHg 68%
    13:00 +18°C° 0.5 mm 2 mps 564 mmHg 69%
    14:00 +18°C° 0.9 mm 1 mps 563 mmHg 74%
    15:00 +16°C° 0.9 mm 1 mps 562 mmHg 79%
    16:00 +15°C° 0.9 mm 1 mps 561 mmHg 83%
    17:00 +15°C° 0.7 mm 1 mps 561 mmHg 84%
    18:00 +14°C° 0.7 mm 1 mps 561 mmHg 85%
    19:00 +13°C° 0.7 mm 1 mps 561 mmHg 87%
    20:00 +13°C° 0.3 mm 1 mps 562 mmHg 85%
    21:00 +13°C° 0.3 mm 1 mps 562 mmHg 84%
    22:00 +13°C° 0.3 mm 1 mps 563 mmHg 83%
    23:00 +13°C° 0.2 mm 1 mps 562 mmHg 84%

    Day after tomorrow, 25 September, Wednesday

    Time Temperature Precipitation Wind Pressure Humidity
    00:00 +13°C° 0.2 mm 1 mps 562 mmHg 85%
    01:00 +13°C° 0.2 mm 1 mps 562 mmHg 85%
    02:00 +11°C° 0.1 mm 0 mps 562 mmHg 86%
    03:00 +11°C° 0.1 mm 0 mps 561 mmHg 86%
    04:00 +11°C° 0.1 mm 0 mps 561 mmHg 86%
    05:00 +11°C° 0.2 mm 0 mps 562 mmHg 85%
    06:00 +12°C° 0.2 mm 0 mps 563 mmHg 84%
    07:00 +12°C° 0.2 mm 0 mps 563 mmHg 84%
    08:00 +13°C° 0.4 mm 0 mps 564 mmHg 82%
    09:00 +13°C° 0.4 mm 0 mps 564 mmHg 81%
    10:00 +15°C° 0.4 mm 1 mps 564 mmHg 80%
    11:00 +16°C° 0.8 mm 1 mps 564 mmHg 77%
    12:00 +18°C° 0.8 mm 1 mps 564 mmHg 75%
    13:00 +19°C° 0.8 mm 1 mps 563 mmHg 72%
    14:00 +19°C° 0.9 mm 1 mps 563 mmHg 73%
    15:00 +19°C° 0.9 mm 1 mps 562 mmHg 73%
    16:00 +18°C° 0.9 mm 1 mps 562 mmHg 73%
    17:00 +16°C° 1.1 mm 1 mps 562 mmHg 77%
    18:00 +15°C° 1.1 mm 1 mps 561 mmHg 82%
    19:00 +14°C° 1.1 mm 1 mps 561 mmHg 86%
    20:00 +13°C° 0.4 mm 1 mps 561 mmHg 86%
    21:00 +13°C° 0.4 mm 1 mps 562 mmHg 86%
    22:00 +12°C° 0.4 mm 1 mps 562 mmHg 87%
    23:00 +12°C° 0.1 mm 1 mps 562 mmHg 87%

    26 September, Thursday

    Time Temperature Precipitation Wind Pressure Humidity
    00:00 +12°C° 0.1 mm 1 mps 561 mmHg 86%
    01:00 +11°C° 0.1 mm 1 mps 561 mmHg 86%
    02:00 +11°C° 0.1 mm 1 mps 561 mmHg 87%
    03:00 +11°C° 0.1 mm 1 mps 561 mmHg 87%
    04:00 +11°C° 0.1 mm 1 mps 561 mmHg 87%
    05:00 +12°C° 0.1 mm 1 mps 561 mmHg 86%
    06:00 +12°C° 0.1 mm 1 mps 562 mmHg 86%
    07:00 +13°C° 0.1 mm 1 mps 562 mmHg 86%
    08:00 +14°C° 0.2 mm 1 mps 563 mmHg 82%
    09:00 +14°C° 0.2 mm 1 mps 563 mmHg 79%
    10:00 +15°C° 0.2 mm 1 mps 564 mmHg 76%
    11:00 +16°C° 0.4 mm 1 mps 563 mmHg 76%
    12:00 +16°C° 0.4 mm 1 mps 563 mmHg 75%
    13:00 +16°C° 0.4 mm 1 mps 562 mmHg 75%
    14:00 +16°C° 0.5 mm 1 mps 562 mmHg 76%
    15:00 +16°C° 0.5 mm 1 mps 562 mmHg 76%
    16:00 +16°C° 0.5 mm 1 mps 561 mmHg 77%
    17:00 +15°C° 0.3 mm 1 mps 561 mmHg 79%
    18:00 +14°C° 0.3 mm 1 mps 561 mmHg 81%
    19:00 +13°C° 0.3 mm 1 mps 561 mmHg 83%
    20:00 +13°C° 0.1 mm 1 mps 561 mmHg 82%
    21:00 +13°C° 0.1 mm 1 mps 562 mmHg 82%
    22:00 +13°C° 0.1 mm 1 mps 562 mmHg 81%
    23:00 +12°C° 0 mm 1 mps 562 mmHg 82%

    27 September, Friday

    Time Temperature Precipitation Wind Pressure Humidity
    00:00 +12°C° 0 mm 1 mps 561 mmHg 83%
    01:00 +11°C° 0 mm 1 mps 561 mmHg 84%
    02:00 +11°C° 0 mm 1 mps 561 mmHg 84%
    03:00 +11°C° 0 mm 1 mps 561 mmHg 84%
    04:00 +11°C° 0 mm 1 mps 561 mmHg 84%
    05:00 +12°C° 0 mm 1 mps 561 mmHg 82%
    06:00 +12°C° 0 mm 1 mps 562 mmHg 80%
    07:00 +12°C° 0 mm 0 mps 563 mmHg 78%
    08:00 +15°C° 0.2 mm 1 mps 564 mmHg 75%
    09:00 +16°C° 0.2 mm 1 mps 564 mmHg 72%
    10:00 +19°C° 0.2 mm 1 mps 565 mmHg 68%
    11:00 +19°C° 1.2 mm 1 mps 564 mmHg 71%
    12:00 +17°C° 1.2 mm 2 mps 564 mmHg 75%
    13:00 +17°C° 1.2 mm 2 mps 563 mmHg 78%
    14:00 +18°C° 1.1 mm 1 mps 562 mmHg 78%
    15:00 +18°C° 1.1 mm 1 mps 562 mmHg 79%
    16:00 +18°C° 1.1 mm 1 mps 561 mmHg 79%
    17:00 +15°C° 0.6 mm 1 mps 561 mmHg 83%
    18:00 +14°C° 0.6 mm 1 mps 561 mmHg 86%
    19:00 +13°C° 0.6 mm 1 mps 560 mmHg 89%
    20:00 +12°C° 0.1 mm 1 mps 561 mmHg 88%
    21:00 +12°C° 0.1 mm 1 mps 561 mmHg 86%
    22:00 +12°C° 0.1 mm 1 mps 561 mmHg 85%
    23:00 +11°C° 0.1 mm 1 mps 561 mmHg 85%

    28 September, Saturday

    Time Temperature Precipitation Wind Pressure Humidity
    00:00 +11°C° 0.1 mm 1 mps 561 mmHg 85%
    01:00 +11°C° 0.1 mm 1 mps 560 mmHg 85%
    02:00 +11°C° 0 mm 1 mps 560 mmHg 85%
    03:00 +10°C° 0 mm 1 mps 560 mmHg 85%
    04:00 +10°C° 0 mm 1 mps 560 mmHg 85%
    05:00 +11°C° 0 mm 1 mps 560 mmHg 83%
    06:00 +12°C° 0 mm 1 mps 561 mmHg 80%
    07:00 +13°C° 0 mm 1 mps 562 mmHg 78%
    08:00 +15°C° 0 mm 1 mps 563 mmHg 72%
    09:00 +18°C° 0 mm 1 mps 564 mmHg 66%
    10:00 +20°C° 0 mm 1 mps 565 mmHg 60%
    11:00 +19°C° 0.6 mm 2 mps 564 mmHg 64%
    12:00 +19°C° 0.6 mm 2 mps 563 mmHg 68%
    13:00 +18°C° 0.6 mm 2 mps 563 mmHg 71%
    14:00 +18°C° 1.2 mm 2 mps 562 mmHg 75%
    15:00 +18°C° 1.2 mm 1 mps 561 mmHg 79%
    16:00 +16°C° 1.2 mm 1 mps 561 mmHg 83%
    17:00 +15°C° 1.6 mm 1 mps 561 mmHg 85%
    18:00 +14°C° 1.6 mm 1 mps 560 mmHg 87%
    19:00 +12°C° 1.6 mm 0 mps 560 mmHg 89%
    20:00 +12°C° 0.5 mm 0 mps 560 mmHg 89%
    21:00 +12°C° 0.5 mm 0 mps 561 mmHg 88%
    22:00 +11°C° 0.5 mm 0 mps 561 mmHg 88%
    23:00 +11°C° 0.3 mm 0 mps 560 mmHg 89%
    Show more